Starlink 32865

operational
NORAD ID: 62952 Int'l Des: 2025-029 Owner: SPXS Country: US Constellation: starlink
LEOCIRCULAR

About Starlink 32865

Description loading...

Live Position

Loading 3D Globe...

Upcoming Passes

Altitude History

Altitude vs Time

uPlot chart will show altitude changes over time

Two-Line Element Set

1 62952U 25029E 25353.12597821 .00024020 00000-0 82076-3 0 9999
2 62952 53.1585 246.6173 0001193 73.9434 286.1698 15.30190113 48990
Epoch: Dec 19, 2025 • Age: 18 hours

Current Status

Altitude 477.0 km
Velocity 7.63 km/s
Sub-Earth Point 33.21°N, 7.67°W
Launch Date Feb 11, 2025
Age 0.8 years
Type internet

Technical Details

Classification Payload
Mass 730.00 kg
Dry Mass 700.00 kg
Total Mass 730.00 kg
Length 0.30 m
Diameter 4.10 m
Span 29.00 m
Shape Box + pan
Manufacturer SPXS
Bus Type Starlink V2M
Phase Status In Orbit
Owner/State SPXS/US

Large Constellations

Loading constellations...